This is the latest recevied weather packets stored in our database for station/object AB4BJ-10. If no packets are shown the sender has not sent any weather packets the latest 10 day(s).
| Time | Temp. | Humidity | Pressure | Rain* | Wind** | Luminosity | Snow |
|---|---|---|---|---|---|---|---|
| 1788371801 | 33.89° C | 60% | 1014.8 hPa | 0 mm | - | - | - |
| 1788371697 | 33.89° C | 60% | 1014.8 hPa | 0 mm | - | - | - |
| 1788371396 | 33.33° C | 62% | 1014.8 hPa | 0 mm | - | - | - |
| 1788371096 | 32.78° C | 60% | 1014.9 hPa | 0 mm | - | - | - |
| 1788371049 | 32.78° C | 60% | 1015 hPa | 0 mm | - | - | - |
| 1788370796 | 32.78° C | 60% | 1015 hPa | 0 mm | - | - | - |
| 1788370495 | 33.33° C | 61% | 1015.1 hPa | 0 mm | - | - | - |
| 1788370232 | 32.78° C | 63% | 1015.2 hPa | 0 mm | - | - | - |
| 1788370195 | 33.33° C | 63% | 1015.1 hPa | 0 mm | - | - | - |
| 1788369895 | 32.78° C | 63% | 1015.2 hPa | 0 mm | - | - | - |
| 1788369595 | 32.78° C | 64% | 1015.3 hPa | 0 mm | - | - | - |
| 1788368995 | 31.67° C | 66% | 1015.4 hPa | 0 mm | - | - | - |
| 1788368889 | 31.67° C | 65% | 1015.4 hPa | 0 mm | - | - | - |
| 1788368694 | 31.67° C | 65% | 1015.4 hPa | 0 mm | - | - | - |
| 1788368393 | 31.67° C | 70% | 1015.6 hPa | 0 mm | - | - | - |
| 1788368093 | 31.67° C | 69% | 1015.7 hPa | 0 mm | - | - | - |
| 1788367793 | 31.11° C | 71% | 1015.7 hPa | 0 mm | - | - | - |
| 1788367595 | 31.11° C | 70% | 1015.9 hPa | 0 mm | - | - | - |
| 1788367493 | 31.11° C | 70% | 1015.9 hPa | 0 mm | - | - | - |
| 1788367192 | 31.11° C | 70% | 1015.9 hPa | 0 mm | - | - | - |
| 1788366892 | 31.11° C | 70% | 1015.9 hPa | 0 mm | - | - | - |
| 1788366592 | 31.11° C | 73% | 1016.1 hPa | 0 mm | - | - | - |
| 1788366292 | 31.11° C | 75% | 1016.1 hPa | 0 mm | - | - | - |
| 1788366027 | 30.56° C | 74% | 1016.1 hPa | 0 mm | - | - | - |
| 1788365993 | 30.56° C | 74% | 1016.1 hPa | 0 mm | - | - | - |
* Rain latest hour (hover to see other rain measurements)
** Current wind speed in m/s (hover to see current wind gust speed)